TimeEDT,TemperatureF,Dew PointF,Humidity,Sea Level PressureIn,VisibilityMPH,Wind Direction,Wind SpeedMPH,Gust SpeedMPH,PrecipitationIn,Events,Conditions,WindDirDegrees,DateUTC
12:15 AM,57.4,55.6,94,29.91,5.0,Calm,Calm,-,N/A,,Clear,0,2013-10-20 04:15:00
12:35 AM,57.2,55.4,94,29.92,5.0,Calm,Calm,-,N/A,,Clear,0,2013-10-20 04:35:00
12:55 AM,57.2,55.2,93,29.92,5.0,WNW,3.5,-,N/A,,Clear,290,2013-10-20 04:55:00
1:15 AM,56.5,54.5,93,29.92,7.0,Calm,Calm,-,N/A,,Clear,0,2013-10-20 05:15:00
1:35 AM,56.1,53.8,92,29.93,7.0,NW,3.5,-,N/A,,Clear,310,2013-10-20 05:35:00
1:55 AM,55.6,52.9,91,29.93,10.0,Calm,Calm,-,N/A,,Clear,0,2013-10-20 05:55:00
2:15 AM,55.4,52.5,90,29.94,10.0,Calm,Calm,-,N/A,,Clear,0,2013-10-20 06:15:00
2:35 AM,54.9,52.0,90,29.94,10.0,Calm,Calm,-,N/A,,Clear,0,2013-10-20 06:35:00
2:55 AM,54.5,50.7,87,29.94,10.0,Calm,Calm,-,N/A,,Clear,0,2013-10-20 06:55:00
3:15 AM,53.6,49.6,86,29.95,10.0,WNW,3.5,-,N/A,,Clear,300,2013-10-20 07:15:00
3:35 AM,52.9,48.4,85,29.96,10.0,Calm,Calm,-,N/A,,Clear,0,2013-10-20 07:35:00
3:55 AM,52.3,47.7,84,29.97,10.0,NW,3.5,-,N/A,,Clear,320,2013-10-20 07:55:00
4:15 AM,51.4,46.8,84,29.97,10.0,NNW,3.5,-,N/A,,Clear,340,2013-10-20 08:15:00
4:35 AM,50.9,46.4,85,29.97,10.0,North,4.6,-,N/A,,Clear,350,2013-10-20 08:35:00
4:55 AM,49.6,44.8,83,29.98,10.0,North,4.6,-,N/A,,Clear,350,2013-10-20 08:55:00
5:15 AM,48.9,43.7,82,29.98,10.0,NNW,3.5,-,N/A,,Clear,340,2013-10-20 09:15:00
5:35 AM,48.4,43.0,82,29.99,10.0,Calm,Calm,-,N/A,,Clear,0,2013-10-20 09:35:00
5:55 AM,48.0,42.4,81,29.99,10.0,Calm,Calm,-,N/A,,Clear,0,2013-10-20 09:55:00
6:15 AM,47.3,41.5,80,30.00,10.0,Calm,Calm,-,N/A,,Clear,0,2013-10-20 10:15:00
6:35 AM,46.2,41.2,83,30.01,10.0,Calm,Calm,-,N/A,,Clear,0,2013-10-20 10:35:00
6:55 AM,45.1,41.7,88,30.01,10.0,Calm,Calm,-,N/A,,Clear,0,2013-10-20 10:55:00
7:15 AM,44.6,41.5,89,30.02,10.0,Calm,Calm,-,N/A,,Clear,0,2013-10-20 11:15:00
7:35 AM,43.7,41.0,90,30.03,10.0,Calm,Calm,-,N/A,,Clear,0,2013-10-20 11:35:00
7:55 AM,43.7,41.2,91,30.04,10.0,Calm,Calm,-,N/A,,Clear,0,2013-10-20 11:55:00
8:15 AM,45.3,40.6,84,30.05,10.0,Calm,Calm,-,N/A,,Clear,0,2013-10-20 12:15:00
8:35 AM,47.3,39.4,74,30.06,10.0,NNW,3.5,-,N/A,,Clear,340,2013-10-20 12:35:00
8:55 AM,48.2,39.7,73,30.07,10.0,North,4.6,-,N/A,,Clear,360,2013-10-20 12:55:00
9:15 AM,48.7,38.7,68,30.08,10.0,North,5.8,-,N/A,,Clear,350,2013-10-20 13:15:00
9:35 AM,49.6,39.4,68,30.09,10.0,North,3.5,-,N/A,,Clear,350,2013-10-20 13:35:00
9:55 AM,51.3,39.7,65,30.10,10.0,North,6.9,-,N/A,,Clear,360,2013-10-20 13:55:00
10:15 AM,52.3,39.9,63,30.10,10.0,North,6.9,-,N/A,,Clear,350,2013-10-20 14:15:00
10:35 AM,53.4,37.8,55,30.10,10.0,North,9.2,-,N/A,,Clear,10,2013-10-20 14:35:00
10:55 AM,54.7,38.1,54,30.10,10.0,NNW,6.9,-,N/A,,Clear,340,2013-10-20 14:55:00
11:15 AM,55.6,37.0,50,30.11,10.0,NNE,5.8,-,N/A,,Clear,30,2013-10-20 15:15:00
11:35 AM,56.7,36.5,47,30.11,10.0,ENE,6.9,-,N/A,,Clear,60,2013-10-20 15:35:00
11:55 AM,57.2,36.1,45,30.11,10.0,North,5.8,-,N/A,,Clear,10,2013-10-20 15:55:00
12:15 PM,58.3,35.8,43,30.11,10.0,North,9.2,-,N/A,,Clear,360,2013-10-20 16:15:00
12:35 PM,58.6,35.6,42,30.10,10.0,North,3.5,-,N/A,,Clear,360,2013-10-20 16:35:00
12:55 PM,59.2,35.1,40,30.10,10.0,ENE,8.1,-,N/A,,Clear,70,2013-10-20 16:55:00
1:15 PM,59.4,34.0,39,30.09,10.0,NNE,8.1,-,N/A,,Clear,30,2013-10-20 17:15:00
1:35 PM,60.4,34.0,37,30.09,10.0,NNE,4.6,-,N/A,,Clear,30,2013-10-20 17:35:00
1:55 PM,59.5,32.9,37,30.08,10.0,Calm,Calm,-,N/A,,Clear,0,2013-10-20 17:55:00
2:15 PM,60.8,32.7,35,30.07,10.0,Calm,Calm,-,N/A,,Clear,0,2013-10-20 18:15:00
2:35 PM,61.2,33.1,35,30.07,10.0,ENE,5.8,-,N/A,,Clear,60,2013-10-20 18:35:00
2:55 PM,60.8,32.0,34,30.07,10.0,Calm,Calm,-,N/A,,Clear,0,2013-10-20 18:55:00
3:15 PM,61.7,32.7,34,30.06,10.0,North,3.5,-,N/A,,Clear,350,2013-10-20 19:15:00
3:35 PM,61.7,32.5,33,30.05,10.0,ENE,3.5,-,N/A,,Clear,70,2013-10-20 19:35:00
3:55 PM,61.2,32.0,33,30.06,10.0,Calm,Calm,-,N/A,,Clear,0,2013-10-20 19:55:00
4:15 PM,61.7,32.2,33,30.06,10.0,Calm,Calm,-,N/A,,Clear,0,2013-10-20 20:15:00
4:35 PM,61.9,32.4,33,30.06,10.0,Calm,Calm,-,N/A,,Clear,0,2013-10-20 20:35:00
4:55 PM,61.3,31.8,33,30.06,10.0,Calm,Calm,-,N/A,,Clear,0,2013-10-20 20:55:00
5:15 PM,61.2,32.9,35,30.06,10.0,Calm,Calm,-,N/A,,Clear,0,2013-10-20 21:15:00
5:35 PM,60.4,34.0,37,30.06,10.0,Calm,Calm,-,N/A,,Clear,0,2013-10-20 21:35:00
5:55 PM,58.1,36.7,45,30.07,10.0,Calm,Calm,-,N/A,,Clear,0,2013-10-20 21:55:00
6:15 PM,55.9,37.6,50,30.07,10.0,Calm,Calm,-,N/A,,Clear,0,2013-10-20 22:15:00
6:35 PM,53.2,42.3,66,30.08,10.0,Calm,Calm,-,N/A,,Clear,0,2013-10-20 22:35:00
6:55 PM,52.5,40.3,63,30.08,10.0,Calm,Calm,-,N/A,,Clear,0,2013-10-20 22:55:00
7:15 PM,50.4,41.4,71,30.08,10.0,Calm,Calm,-,N/A,,Clear,0,2013-10-20 23:15:00
7:35 PM,49.3,41.9,76,30.09,10.0,Calm,Calm,-,N/A,,Clear,0,2013-10-20 23:35:00
7:55 PM,49.3,43.3,80,30.09,10.0,Calm,Calm,-,N/A,,Clear,0,2013-10-20 23:55:00
8:15 PM,48.4,41.2,76,30.10,10.0,Calm,Calm,-,N/A,,Clear,0,2013-10-21 00:15:00
8:35 PM,48.4,41.4,77,30.10,10.0,Calm,Calm,-,N/A,,Clear,0,2013-10-21 00:35:00
8:55 PM,47.3,41.9,82,30.11,10.0,Calm,Calm,-,N/A,,Clear,0,2013-10-21 00:55:00
9:15 PM,46.6,42.6,86,30.10,10.0,Calm,Calm,-,N/A,,Clear,0,2013-10-21 01:15:00
9:35 PM,45.7,41.5,85,30.11,10.0,Calm,Calm,-,N/A,,Clear,0,2013-10-21 01:35:00
9:55 PM,46.4,42.8,87,30.12,10.0,Calm,Calm,-,N/A,,Clear,0,2013-10-21 01:55:00
10:15 PM,45.3,40.8,84,30.12,10.0,Calm,Calm,-,N/A,,Clear,0,2013-10-21 02:15:00
10:35 PM,45.3,40.5,83,30.12,10.0,Calm,Calm,-,N/A,,Clear,0,2013-10-21 02:35:00
10:55 PM,45.0,41.0,86,30.13,10.0,Calm,Calm,-,N/A,,Clear,0,2013-10-21 02:55:00
11:15 PM,45.0,41.5,88,30.13,10.0,Calm,Calm,-,N/A,,Clear,0,2013-10-21 03:15:00
11:35 PM,44.2,40.1,85,30.13,10.0,Calm,Calm,-,N/A,,Clear,0,2013-10-21 03:35:00
11:55 PM,43.3,41.2,92,30.13,10.0,Calm,Calm,-,N/A,,Clear,0,2013-10-21 03:55:00